This demonstration page uses our WeatherBlox Daily Observations layout. Learn more.

Left ArrowRight Arrow

47.50024, -111.30081

Hourly Observations for January 27, 2018

Temp ( °F °C ) Dew Point ( °F °C ) Humidity (%) Winds ( mph kmh ) Pressure ( in mb ) Visibility ( mi km ) Precip ( " mm )
12:53 am 00:53 Partly Cloudy 29 -1.7 16 -8.9 58 58 SW 21 33 30.13 1020 10 16 0.00 0.00
1:53 am 01:53 Mostly Clear 26 -3.3 15 -9.4 63 63 WSW 14 22 30.17 1022 10 16 0.00 0.00
2:53 am 02:53 Clear 17 -8.3 11 -11.7 77 77 NNE 9 15 30.24 1024 10 16 0.00 0.00
3:53 am 03:53 Mostly Cloudy 14 -10 9 -12.8 80 80 NNE 5 7 30.30 1026 10 16 0.00 0.00
4:53 am 04:53 Clear 11 -11.7 6 -14.4 81 81 N 7 11 30.34 1027 10 16 0.00 0.00
5:53 am 05:53 Clear 9 -12.8 4 -15.6 80 80 N 7 11 30.38 1029 10 16 0.00 0.00
6:53 am 06:53 Cloudy 10 -12.2 5 -15 80 80 N 5 7 30.39 1029 10 16 0.00 0.00
7:53 am 07:53 Cloudy 11 -11.7 5 -15 77 77 N 3 6 30.41 1030 10 16 0.00 0.00
8:53 am 08:53 Mostly Cloudy 12 -11.1 6 -14.4 77 77 N 3 6 30.40 1030 10 16 0.00 0.00
9:53 am 09:53 Sunny 14 -10 6 -14.4 71 71 Calm 30.40 1029 10 16 0.00 0.00
10:53 am 10:53 Sunny 16 -8.9 6 -14.4 65 65 Calm 30.39 1029 10 16 0.00 0.00
11:53 am 11:53 Sunny 18 -7.8 7 -13.9 62 62 ENE 3 6 30.35 1028 10 16 0.00 0.00
12:53 pm 12:53 Sunny 20 -6.7 9 -12.8 62 62 ESE 5 7 30.27 1025 10 16 0.00 0.00
1:53 pm 13:53 Partly Cloudy 21 -6.1 10 -12.2 62 62 E 5 7 30.24 1024 10 16 0.00 0.00
2:53 pm 14:53 Cloudy 22 -5.6 10 -12.2 60 60 ENE 9 15 30.22 1023 10 16 0.00 0.00
3:53 pm 15:53 Cloudy 20 -6.7 12 -11.1 71 71 ENE 13 20 30.23 1024 10 16 0.00 0.00
4:53 pm 16:53 Cloudy 22 -5.6 13 -10.6 68 68 ENE 12 19 30.21 1023 10 16 0.00 0.00
5:53 pm 17:53 Mostly Clear 20 -6.7 14 -10 78 78 E 9 15 30.20 1023 10 16 0.00 0.00
6:53 pm 18:53 Mostly Clear 20 -6.7 15 -9.4 81 81 E 6 9 30.20 1023 10 16 0.00 0.00
7:53 pm 19:53 Mostly Cloudy 20 -6.7 16 -8.9 85 85 N 3 6 30.22 1023 10 16 0.00 0.00
8:53 pm 20:53 Mostly Clear 18 -7.8 15 -9.4 88 88 WNW 7 11 30.23 1024 10 16 0.00 0.00
9:53 pm 21:53 Cloudy 18 -7.8 15 -9.4 88 88 NNW 6 9 30.24 1024 10 16 0.00 0.00
10:53 pm 22:53 Mostly Cloudy 18 -7.8 15 -9.4 88 88 N 3 6 30.24 1024 10 16 0.00 0.00
11:53 pm 23:53 Mostly Clear 18 -7.8 14 -10 84 84 ENE 5 7 30.27 1025 10 16 0.00 0.00

Powered by AerisWeather